Change the Weather History Date:

Saturday, February 22, 2014

  Actual Average Record
Temperature  
Mean Temperature 38 °F 23 °F  
Max Temperature 46 °F 33 °F 58 °F (1981)
Min Temperature 30 °F 14 °F -15 °F (1972)
Degree Days  
Heating Degree Days 27 42  
Month to date heating degree days 1016 992  
Since 1 July heating degree days 5562 5368  
Cooling Degree Days 0 0  
Month to date cooling degree days 0  
Year to date cooling degree days 0  
Moisture  
Dew Point 18 °F    
Average Humidity 57    
Maximum Humidity 92    
Minimum Humidity 21    
Precipitation  
Precipitation 0.00 in - 0.73 in (1974)
Month to date precipitation 0.62  
Year to date precipitation 1.26  
Sea Level Pressure  
Sea Level Pressure 29.76 in    
Wind  
Wind Speed 9 mph (SSW)    
Max Wind Speed 23 mph    
Max Gust Speed 36 mph    
Visibility 10 miles    
Events      
T = Trace of Precipitation, MM = Missing Value Source: NWS Daily Summary

Daily Weather History Graph

Daily Weather History Graph

Search for Another Location

Airport or City:

Trip Planner

Search our weather history database for the weather conditions in past years. The results will help you decide how hot, cold, wet, or windy it might be!

Date:

Astronomy

Feb. 22, 2014 Rise Set
Actual Time 6:43 AM EST 5:32 PM EST
Civil Twilight 6:13 AM EST 6:01 PM EST
Nautical Twilight 5:39 AM EST 6:35 PM EST
Astronomical Twilight 5:06 AM EST 7:09 PM EST
Moon 12:41 AM EST (2/22) 10:34 AM EST (2/22)
Length of Visible Light 11h 48m
Length of Day
10h 49m
Waning Gibbous, 50% of the Moon is Illuminated
Feb 22
Waning Gibbous
Feb 22
Last Quarter
Mar 1
New
Mar 8
First Quarter
Mar 16
Full

Hourly Weather History & Observations

Time (EST) Temp. Windchill Dew Point Humidity Pressure Visibility Wind Dir Wind Speed Gust Speed Precip Events Conditions
12:53 AM 32.0 °F 25.6 °F 28.0 °F 85% 29.74 in 10.0 mi SSE 6.9 mph - N/A   Clear
1:53 AM 33.1 °F 26.9 °F 28.9 °F 85% 29.74 in 10.0 mi SSE 6.9 mph - N/A   Clear
2:53 AM 33.1 °F 26.9 °F 28.0 °F 82% 29.74 in 10.0 mi SSE 6.9 mph - N/A   Clear
3:53 AM 37.0 °F 34.5 °F 23.0 °F 57% 29.75 in 10.0 mi Variable 3.5 mph - N/A   Clear
4:53 AM 37.0 °F 32.4 °F 23.0 °F 57% 29.76 in 10.0 mi SSE 5.8 mph - N/A   Clear
5:53 AM 37.0 °F 30.4 °F 18.0 °F 46% 29.75 in 10.0 mi SW 9.2 mph 20.7 mph N/A   Clear
6:53 AM 37.9 °F 31.5 °F 16.0 °F 41% 29.75 in 10.0 mi SSW 9.2 mph 23.0 mph N/A   Clear
7:53 AM 39.9 °F 34.5 °F 15.1 °F 36% 29.76 in 10.0 mi SSW 8.1 mph 18.4 mph N/A   Clear
8:53 AM 43.0 °F 37.2 °F 19.9 °F 40% 29.75 in 10.0 mi SW 10.4 mph 23.0 mph N/A   Clear
9:53 AM 44.1 °F 38.1 °F 23.0 °F 43% 29.75 in 10.0 mi SW 11.5 mph 23.0 mph N/A   Partly Cloudy
10:53 AM 44.1 °F 37.4 °F 24.1 °F 45% 29.74 in 10.0 mi SSW 13.8 mph 23.0 mph N/A   Partly Cloudy
11:53 AM 45.0 °F 38.2 °F 21.9 °F 40% 29.72 in 10.0 mi SW 15.0 mph 32.2 mph N/A   Mostly Cloudy
12:53 PM 45.0 °F 38.2 °F 21.0 °F 39% 29.69 in 10.0 mi SW 15.0 mph 33.4 mph N/A   Mostly Cloudy
1:53 PM 45.0 °F 38.9 °F 21.0 °F 39% 29.67 in 10.0 mi SSW 12.7 mph 25.3 mph N/A   Partly Cloudy
2:53 PM 46.0 °F 40.6 °F 18.0 °F 33% 29.69 in 10.0 mi WSW 11.5 mph 26.5 mph N/A   Partly Cloudy
3:53 PM 46.0 °F 40.6 °F 9.0 °F 22% 29.71 in 10.0 mi SW 11.5 mph 31.1 mph N/A   Clear
4:53 PM 44.1 °F 37.4 °F 8.1 °F 23% 29.73 in 10.0 mi SW 13.8 mph 29.9 mph N/A   Clear
5:53 PM 41.0 °F 34.7 °F 9.0 °F 27% 29.75 in 10.0 mi WSW 10.4 mph 26.5 mph N/A   Clear
6:53 PM 39.9 °F 32.9 °F 10.0 °F 29% 29.79 in 10.0 mi WSW 11.5 mph 24.2 mph N/A   Clear
7:53 PM 37.9 °F 29.2 °F 12.0 °F 35% 29.82 in 10.0 mi WSW 15.0 mph 26.5 mph N/A   Clear
8:53 PM 36.0 °F 32.1 °F 12.9 °F 39% 29.85 in 10.0 mi Variable 4.6 mph - N/A   Clear
9:53 PM 34.0 °F - 12.9 °F 42% 29.87 in 10.0 mi Calm Calm - N/A   Clear
10:53 PM 34.0 °F 29.8 °F 12.9 °F 42% 29.88 in 10.0 mi SW 4.6 mph - N/A   Clear
11:53 PM 34.0 °F 31.0 °F 12.0 °F 40% 29.89 in 10.0 mi Variable 3.5 mph - N/A   Partly Cloudy